Location: Newark
(37.7892°N, 97.1083°W)
Time: 04:13:22
(UTC+00:00)

ISS - Pass Details

Date: 02 February 2021
Orbit: 417 x 422 km, 51.6° (Epoch: 03 March)

Event Time Altitude Azimuth Distance (km) Brightness Sun altitude
Rises 01:39:20 0° 316° (NW) 2,375 0.6 -21.3°
Reaches altitude 10° 01:41:35 10° 327° (NNW) 1,508 -0.6 -21.8°
Enters shadow 01:43:02 21° 343° (NNW) 1,022 -1.7 -22.1°
